Lapse_Rate
6.5 6.5 6.5 6.5 6.5 6.5 6.5 6.5 6.5 6.5 6.5 6.5 6.5 6.5 6.6 6.6 5.9 5.7 5.0 4.3 3.2 1.7 0.1 -0.4 -0.2 -0.6 -0.9 -1.4 -2.6 -2.6 -2.8 -2.6 -2.9 -2.6 -2.3 -1.2 -0.7 0.4 0.5 0.6 1.0 1.5 1.9 2.3
6.5 6.5 6.5 6.5 6.5 6.5 6.5 6.5 6.5 6.5 6.5 6.5 6.5 6.7 6.6 6.1 5.0 5.6 4.7 3.6 2.5 1.3 0.2 -0.4 -1.2 -1.2 -0.4 -0.7 -2.5 -2.4 -3.0 -3.0 -3.0 -2.2 -2.0 -1.3 -0.4 0.2 0.5 0.6 -0.2 0.0 1.2 1.2
6.5 6.5 6.5 6.5 6.5 6.5 6.5 6.5 6.5 6.5 6.5 6.5 6.5 6.5 6.4 6.4 5.3 4.4 3.6 2.7 1.4 -0.2 -1.1 -0.9 -1.1 -0.6 -0.5 -1.0 -1.5 -1.8 -3.0 -3.4 -2.9 -2.6 -2.4 -1.8 -0.7 -0.5 -0.9 -0.7 0.1 0.2 0.3 1.2
6.5 6.5 6.5 6.5 6.5 6.5 6.5 6.5 6.5 6.5 6.5 6.5 6.5 5.6 4.3 3.8 4.3 3.3 2.5 2.2 1.5 0.3 -0.4 -1.1 -0.8 -0.5 -0.2 -0.4 -1.1 -0.7 -0.6 -2.3 -2.9 -3.2 -3.3 -2.7 -2.2 -1.6 -0.5 0.4 0.6 1.1 0.9 1.4
6.5 6.5 6.5 6.5 6.5 6.5 6.5 6.5 6.5 6.5 6.5 6.5 5.8 5.7 5.9 3.5 3.5 3.1 0.7 0.3 -0.8 -1.2 -1.6 -1.2 -1.4 -0.4 0.2 0.2 0.3 0.6 0.1 -0.4 -0.9 -2.8 -2.8 -2.4 -1.6 -0.4 0.5 1.0 1.1 1.2 1.7 2.1
6.5 6.5 6.5 6.5 6.5 6.7 6.5 6.5 6.5 6.5 6.5 6.5 6.8 6.5 6.5 2.3 2.5 1.4 -1.9 -2.2 -2.8 -2.7 -2.2 -2.4 -2.0 -0.6 -0.7 -0.2 0.1 0.3 0.1 0.4 0.6 0.7 0.8 -0.2 0.2 0.3 0.6 1.3 1.4 2.3 2.3 2.5
6.5 6.5 6.5 6.5 6.5 6.7 6.5 6.5 6.5 6.6 6.6 6.7 6.5 6.4 3.7 0.1 -0.0 -0.5 -3.3 -4.6 -4.3 -4.6 -5.0 -5.3 -4.5 -2.7 -2.6 -2.5 -2.0 -1.4 0.2 1.1 1.0 1.7 1.9 2.2 2.0 2.7 2.6 2.6 2.6 2.6 2.9 3.4
6.5 6.5 6.5 6.6 6.6 6.5 6.5 5.5 5.6 5.6 4.7 2.5 1.4 -0.7 -1.0 -1.5 -2.0 -2.2 -3.6 -4.3 -4.7 -5.4 -5.8 -5.9 -4.9 -3.7 -3.7 -2.9 -2.6 -1.5 -0.5 0.0 0.4 1.3 2.6 2.9 2.8 3.3 3.9 3.9 3.7 4.0 4.3 4.7
6.5 6.5 6.5 6.9 6.7 5.7 4.8 5.7 5.4 4.9 3.7 2.4 0.9 -0.3 0.3 1.3 0.6 -0.8 -3.1 -4.0 -4.3 -5.0 -5.9 -5.5 -4.5 -3.3 -3.0 -3.1 -2.6 -1.7 -0.4 0.2 1.0 2.0 3.0 3.1 3.2 3.4 4.4 4.3 5.1 4.9 5.0 4.8
6.5 6.5 6.5 6.9 6.2 5.9 5.0 4.4 4.8 3.8 3.1 1.2 1.1 0.1 0.7 1.4 0.8 -0.6 -2.1 -3.2 -3.8 -4.3 -4.6 -5.0 -4.0 -2.3 -1.1 -3.0 -2.4 -1.4 -0.4 0.5 1.4 2.0 3.0 3.8 4.8 4.7 5.0 4.5 4.9 5.4 5.1 4.9
6.5 6.5 6.7 6.8 6.9 5.8 4.8 4.1 3.9 2.5 2.8 2.1 3.2 1.4 1.2 1.1 0.3 -0.9 -2.0 -2.8 -2.5 -1.8 -2.3 -3.0 -2.6 -2.3 -1.9 -1.7 -1.0 0.4 1.0 1.4 2.5 3.5 3.8 3.9 5.3 5.4 5.4 5.7 6.4 6.4 5.8 5.3
6.5 6.6 6.5 6.2 5.5 4.9 4.3 3.6 2.8 2.6 2.2 2.9 3.3 2.2 1.4 1.1 0.2 -0.9 -1.4 -2.1 -1.4 -0.9 -0.7 -1.3 -0.7 -0.2 -0.1 0.5 1.3 1.6 1.9 2.9 3.3 3.9 4.0 5.0 5.2 5.3 4.5 5.5 5.6 5.5 4.9 5.4
6.5 5.4 5.4 5.1 5.0 4.7 4.6 4.0 2.7 2.7 2.7 2.6 2.3 1.7 1.2 0.5 -0.2 -1.1 -0.9 -1.1 -0.7 -0.1 0.3 -0.1 0.2 0.3 0.8 1.4 2.3 3.1 3.4 3.2 3.2 3.6 4.2 4.3 5.0 5.9 5.8 5.5 5.6 5.8 5.4 5.6
5.4 6.3 6.0 5.1 5.6 4.9 4.7 4.3 3.6 3.1 3.2 2.6 2.3 1.3 0.7 0.7 -0.6 0.2 -0.0 0.2 0.4 0.6 0.6 0.5 0.6 0.6 0.6 1.5 2.6 3.0 3.6 3.0 3.3 3.6 3.8 4.2 4.9 5.4 6.1 5.8 5.0 5.6 6.6 7.4
4.7 5.4 6.0 4.9 5.4 4.8 4.2 4.1 4.7 4.5 3.9 3.1 2.3 2.0 1.2 0.5 0.7 0.2 0.0 0.1 0.6 1.2 0.8 0.9 1.0 0.2 0.8 1.7 2.3 2.3 3.4 3.7 3.6 3.5 3.5 4.0 4.6 5.2 5.8 5.8 5.9 5.9 6.2 6.9
5.6 5.3 5.1 5.0 5.6 5.2 4.9 4.3 4.5 4.0 3.3 2.8 2.3 1.7 1.8 1.8 0.9 0.3 -0.0 -0.1 -0.3 -0.3 -0.2 -0.2 0.1 -0.0 0.9 2.1 2.8 2.8 3.3 3.1 3.0 3.3 2.9 4.0 4.8 5.3 5.3 5.6 5.6 5.6 6.5 7.8
6.0 6.4 5.6 5.6 5.0 5.1 5.0 4.7 4.6 4.3 3.1 2.5 2.0 1.1 0.7 0.1 -0.6 -0.7 -0.6 -0.5 -0.6 -0.4 -0.2 -0.3 -1.0 -0.8 0.0 1.3 2.2 3.4 4.1 3.4 3.7 3.8 4.0 4.3 4.8 5.2 5.6 5.5 5.7 5.8 6.2 5.7
5.1 5.4 6.3 7.0 5.7 4.7 4.0 3.3 2.9 2.8 2.6 2.5 0.5 0.0 -0.9 -0.8 0.3 -0.8 -1.5 -1.8 -1.9 -1.6 -0.5 -0.8 -0.9 -1.2 -0.3 0.8 3.1 4.0 4.6 3.7 3.9 4.4 4.6 4.5 5.2 5.7 5.8 5.9 6.1 6.0 6.0 4.8
4.0 4.2 5.2 5.4 5.0 4.1 3.4 3.0 1.8 1.3 0.6 1.1 0.4 0.1 0.0 -0.3 -0.3 -1.7 -2.2 -1.7 -0.9 -0.4 -1.4 -1.7 -0.6 -0.3 0.3 1.2 2.7 4.2 4.8 4.5 4.9 5.2 5.3 4.9 5.3 6.0 5.9 6.0 6.1 5.9 5.6 5.0
3.4 2.9 2.2 1.0 -0.1 -0.3 -1.2 -2.2 -0.5 -0.2 0.4 0.7 -0.3 -0.6 -1.7 -2.0 -1.8 -1.7 -1.0 0.1 0.7 1.7 -1.5 -0.5 0.3 1.0 1.3 1.8 2.6 4.4 4.7 5.0 5.5 5.6 5.6 5.8 6.1 6.1 6.0 5.9 6.1 5.7 5.4 5.2
-0.0 -1.0 -2.2 -2.6 -3.1 -3.0 -2.3 -0.6 0.0 -0.6 -0.5 1.4 1.3 0.3 -1.3 -3.0 -2.2 -1.8 -0.6 1.3 -1.1 -0.5 0.6 0.5 2.1 2.4 3.1 3.0 3.6 4.3 4.7 5.0 5.5 5.7 5.7 6.2 6.1 6.1 6.0 5.7 5.3 5.2 5.2 5.3
0.9 0.2 -0.6 -0.7 -0.0 0.4 0.4 0.7 0.3 -0.6 -1.2 -1.4 -2.4 -2.2 -2.2 -2.4 -2.0 -1.6 -1.8 2.3 0.4 -0.5 0.9 1.9 2.8 2.9 3.4 2.8 4.5 4.4 4.6 4.9 5.3 5.7 6.0 6.0 6.0 5.9 5.9 5.6 5.3 5.0 4.9 5.1
2.0 1.9 1.6 1.5 1.6 1.7 1.6 1.1 0.3 -0.0 -0.5 -0.5 -1.4 -0.7 0.5 0.5 1.6 2.9 2.3 0.0 1.0 0.4 2.2 2.7 2.2 2.0 2.5 4.3 4.4 4.5 4.5 4.7 5.2 5.8 6.0 6.0 6.1 6.1 6.0 5.9 5.6 5.4 5.2 5.0
2.4 2.7 2.6 2.7 3.2 3.7 3.1 3.4 2.9 2.5 1.7 1.3 0.1 0.8 2.1 1.9 1.5 1.7 1.3 -0.1 -0.0 1.5 2.5 1.8 2.0 2.3 3.6 4.2 4.4 4.5 4.7 5.3 5.4 5.4 5.5 4.5 5.6 5.4 5.6 5.3 5.5 5.6 5.3 4.9
2.8 3.1 3.3 4.0 4.3 4.5 4.9 5.6 4.8 4.9 4.6 4.1 3.8 3.3 3.0 2.9 3.7 2.2 2.5 1.3 0.7 2.5 2.9 1.2 1.9 2.3 4.0 4.3 4.6 4.6 4.7 4.8 5.0 5.1 5.3 5.6 5.5 5.4 5.6 5.6 5.6 5.6 5.3 5.2
5.0 5.3 5.8 5.9 6.2 6.5 6.3 6.5 6.2 6.0 5.0 3.8 2.7 2.6 2.3 2.1 1.8 2.2 2.4 2.4 2.2 2.1 3.1 2.7 3.1 3.6 4.0 4.3 4.3 4.2 4.5 4.3 4.2 5.3 5.5 5.9 5.9 5.8 5.5 5.3 5.0 4.8 4.9 4.7
6.0 5.7 5.7 5.6 5.9 6.1 6.2 6.4 6.4 6.4 5.7 4.3 3.0 2.0 2.5 2.3 1.8 2.2 2.3 2.4 2.6 2.4 2.5 2.6 2.8 3.2 3.7 3.9 4.0 4.2 4.7 5.0 4.9 5.5 5.7 5.5 5.5 5.2 4.8 4.6 4.4 3.8 3.4 3.0
Wind_Speed
6 8 6 3 8 7 5 5 5 3 12 11 6 6 8 3 8 11 12 14 15 16 15 15 15 14 13 12 11 11 9 9 9 8 7 7 7 6 6 5 5 6 6 6
6 14 13 7 14 13 12 13 14 15 22 10 4 9 7 9 12 12 13 14 14 14 15 17 17 15 14 13 12 11 10 9 9 9 8 7 7 7 7 8 7 7 8 8
10 5 7 9 16 14 11 14 16 13 18 5 6 12 12 11 13 15 15 15 16 18 17 16 17 17 16 14 13 12 10 9 9 9 8 8 8 8 7 7 7 7 7 7
4 4 8 1 3 11 15 17 16 14 11 11 10 11 9 8 13 14 14 15 15 13 14 15 16 16 15 15 14 13 13 12 10 8 8 8 9 8 7 7 7 7 6 6
5 5 6 10 4 6 7 8 15 18 14 9 4 0 5 7 7 9 7 7 10 12 14 16 17 17 17 16 15 14 14 14 13 11 9 9 9 8 7 7 6 6 5 5
5 8 6 0 4 2 4 12 8 12 14 13 9 7 7 6 6 6 6 6 12 13 15 15 15 18 15 16 16 15 15 15 15 14 13 12 11 9 7 7 7 5 6 5
13 10 7 9 3 6 9 5 5 7 6 8 7 10 1 8 5 7 7 11 12 12 12 13 14 15 14 13 14 12 13 14 14 14 13 13 11 8 8 7 7 6 5 3
8 9 15 8 5 13 8 4 4 3 3 6 3 3 4 5 8 11 13 13 11 11 11 11 13 13 13 13 10 12 12 12 13 12 10 10 11 9 8 7 6 5 4 4
6 5 3 5 10 7 3 3 4 2 4 6 5 4 5 9 11 11 11 10 9 10 12 10 11 11 13 10 13 12 12 12 12 13 11 11 11 10 7 7 5 5 4 4
0 7 11 14 12 8 5 6 4 3 5 8 7 8 5 8 9 10 9 9 9 12 11 11 9 9 7 12 12 13 12 12 11 12 12 11 9 9 8 7 6 5 5 5
6 7 7 9 11 8 6 5 5 3 5 9 8 11 9 8 10 9 10 10 10 11 11 12 12 10 11 12 14 14 12 11 12 10 11 10 9 8 8 8 8 6 5 6
6 7 4 5 8 6 5 7 6 7 6 6 8 13 11 9 8 9 9 10 10 10 11 12 13 12 12 14 15 15 13 11 10 10 9 8 8 5 3 7 11 8 10 8
7 2 7 7 4 4 6 6 5 7 8 11 6 8 9 6 7 9 9 10 10 11 11 13 13 13 13 14 15 15 13 13 9 9 9 9 8 8 7 7 10 12 13 10
5 2 3 2 2 4 2 5 4 3 3 2 7 6 8 8 8 10 10 10 10 11 11 12 13 13 13 14 14 12 12 13 10 9 9 9 9 8 8 9 9 7 10 9
4 3 3 2 3 4 2 2 3 3 3 3 4 7 8 10 10 9 9 10 11 11 11 12 12 12 13 13 13 13 11 10 9 8 8 9 8 8 8 8 8 8 7 5
6 5 5 3 5 4 1 1 3 5 6 6 6 7 8 7 9 11 11 12 13 11 12 10 11 12 13 13 13 10 9 12 11 8 8 9 8 8 8 8 9 9 8 8
3 4 4 6 6 6 7 6 7 6 5 7 8 8 9 9 9 9 10 9 5 8 10 10 9 10 11 11 12 9 8 9 11 8 9 9 9 9 9 9 8 8 8 8
7 10 10 7 5 5 5 5 5 6 6 5 7 8 9 9 10 9 9 8 7 6 7 8 9 10 10 11 11 9 9 9 9 8 8 9 9 9 9 9 9 8 7 7
11 7 6 6 6 5 2 2 3 4 6 7 8 9 6 4 6 8 9 8 8 9 7 8 13 12 12 12 11 8 9 10 9 8 8 10 9 8 9 9 8 8 8 8
5 5 6 5 4 5 6 6 6 6 4 8 9 10 9 5 7 8 7 7 5 3 11 12 12 11 11 13 11 8 9 10 10 9 8 9 9 9 8 10 9 8 8 8
9 7 7 8 9 10 8 5 6 7 5 4 9 9 8 7 7 8 8 6 4 7 11 14 10 9 9 11 10 8 8 9 9 9 8 8 8 8 8 8 8 7 7 7
6 6 7 7 10 9 7 7 8 8 8 7 10 9 9 9 8 7 4 3 5 8 9 8 8 11 10 13 8 8 8 8 7 7 7 7 7 7 7 7 7 7 7 7
6 6 7 6 9 9 8 9 8 8 8 6 7 8 8 6 4 5 5 4 6 7 7 7 10 12 15 8 7 7 8 8 7 7 7 7 7 7 6 7 6 6 6 7
6 7 8 6 6 7 10 8 9 9 8 8 7 6 8 6 6 5 8 7 9 8 7 8 10 13 11 7 7 7 7 7 6 5 5 6 5 5 6 6 6 6 6 7
7 6 5 5 7 6 8 8 9 8 9 9 8 6 6 4 3 5 6 6 8 8 7 9 11 10 6 7 7 6 6 6 6 6 6 6 6 6 6 5 5 6 6 6
6 5 4 5 5 5 5 5 5 5 6 6 5 4 4 5 7 7 6 7 6 8 7 6 6 6 6 6 6 6 6 6 6 6 6 6 6 5 5 5 5 5 5 5
5 5 5 5 4 4 4 5 6 5 4 5 5 3 4 5 5 6 8 6 6 6 6 5 5 5 6 6 6 6 5 5 6 6 5 5 5 5 5 5 4 6 7 7
Wind_Direction
220 224 286 314 290 240 236 219 226 258 232 260 238 310 345 155 158 162 170 181 185 178 173 170 168 170 167 161 155 154 150 153 148 142 142 141 138 139 117 102 94 85 75 62
263 255 233 229 241 246 250 253 243 250 262 235 180 221 214 190 175 187 188 189 185 182 177 180 177 171 166 166 161 157 155 153 149 148 147 149 139 126 115 107 97 89 80 72
264 220 230 244 235 222 233 234 224 227 249 158 194 224 227 192 190 195 196 183 185 190 188 181 177 169 170 164 159 163 155 153 153 152 149 144 133 123 121 117 113 99 85 76
305 159 218 274 338 229 218 236 230 244 244 201 204 211 225 205 199 195 194 191 191 180 176 173 168 169 158 159 162 163 163 160 157 149 142 135 128 129 129 127 115 106 91 79
271 264 305 292 207 185 180 247 231 240 246 221 180 62 266 207 188 196 165 157 161 160 160 165 166 162 159 162 164 166 168 167 163 153 145 144 140 141 137 130 120 106 91 82
247 278 280 165 272 154 143 271 243 211 235 207 157 218 235 168 158 144 125 137 141 144 149 152 161 162 159 163 169 177 172 168 163 161 158 155 152 150 144 136 125 120 106 88
217 241 254 235 194 165 183 238 247 224 235 159 195 222 118 135 130 129 127 128 131 139 148 152 154 156 155 160 177 166 162 161 163 167 163 160 156 152 152 145 133 130 121 104
215 225 257 166 148 207 224 198 200 185 210 207 177 146 131 109 132 137 136 137 140 136 141 148 155 155 157 171 155 152 152 155 159 163 165 163 161 159 159 147 144 146 147 149
214 222 301 307 292 233 198 216 206 198 214 182 164 182 158 149 151 152 147 140 136 135 136 147 159 163 163 158 152 150 152 155 159 163 168 169 168 165 166 167 160 155 156 155
163 251 267 280 255 247 218 231 232 204 186 183 176 159 152 151 149 142 140 145 144 137 142 152 162 166 156 152 151 151 155 157 160 165 167 171 176 179 182 183 182 174 169 166
245 277 294 265 249 243 232 248 220 164 188 192 167 167 159 161 163 154 149 149 156 161 160 164 165 153 151 152 154 157 158 161 167 172 174 174 183 186 194 199 195 185 182 175
226 209 178 271 296 248 199 231 200 166 157 165 167 168 165 166 163 154 151 153 157 158 155 161 166 164 161 163 164 160 161 167 170 171 173 173 174 167 137 183 180 177 166 167
240 183 209 244 296 238 229 234 195 184 165 157 161 158 157 149 156 151 155 160 163 168 161 163 165 166 166 167 169 172 166 167 167 171 171 171 173 172 152 142 149 153 156 163
252 352 284 231 272 9 289 36 78 41 27 131 156 145 148 149 152 168 173 170 160 159 163 165 167 171 169 166 170 170 167 165 169 174 172 171 173 173 165 160 157 157 167 163
297 255 275 356 6 38 61 106 155 193 176 163 175 174 168 164 171 175 157 157 159 165 163 166 168 170 166 165 167 164 163 169 169 169 171 168 167 169 170 167 167 161 154 144
315 306 296 263 280 279 254 144 214 224 194 175 180 185 178 164 151 156 159 160 161 177 173 168 167 164 162 167 168 163 162 159 162 162 162 166 166 171 173 171 168 171 175 169
287 289 250 250 230 245 233 227 227 229 187 191 184 151 151 143 136 148 161 166 145 153 159 161 153 150 151 159 162 165 166 165 161 161 171 171 172 177 176 175 177 181 183 176
266 262 248 238 244 245 265 253 227 200 191 173 140 148 145 158 166 159 149 134 122 121 148 144 145 143 147 154 162 164 169 169 173 173 171 173 177 179 181 183 185 184 180 175
347 295 254 246 267 246 255 277 242 145 143 142 144 149 138 122 134 133 139 142 147 150 170 147 148 145 150 156 158 165 171 171 174 175 175 172 176 182 186 189 190 190 183 177
17 35 57 59 44 44 57 40 72 92 86 114 125 114 104 110 119 136 147 146 149 136 145 149 148 149 155 161 160 167 170 174 176 176 174 179 184 186 190 194 192 188 185 184
49 48 58 61 54 46 45 54 86 60 33 95 119 113 123 118 115 130 139 144 150 141 147 147 151 151 159 158 164 164 169 173 176 176 177 182 180 183 185 184 181 178 178 180
78 75 69 70 79 74 59 71 82 88 70 74 84 99 107 105 106 97 55 132 144 141 144 149 155 158 153 153 161 163 164 167 169 170 175 178 178 177 177 174 174 172 173 175
86 86 83 73 85 89 79 69 70 79 88 90 96 102 103 110 119 130 117 107 128 133 137 144 143 139 144 153 156 154 156 159 165 171 172 173 175 173 172 172 168 166 169 171
92 91 93 89 89 90 88 84 87 85 88 89 92 97 117 110 73 62 97 104 111 121 122 132 133 140 146 148 148 147 155 158 159 159 156 152 154 152 156 158 163 167 167 167
95 99 95 91 97 100 106 106 100 97 94 92 91 86 83 44 108 127 118 114 115 119 119 122 130 130 138 143 143 148 150 151 151 150 153 155 156 159 159 161 166 168 167 173
127 125 113 110 123 125 125 121 110 107 106 98 80 80 77 93 104 112 121 121 119 120 124 133 137 133 136 139 140 142 144 142 150 154 152 149 148 152 156 158 162 169 173 171
132 138 132 123 123 132 132 132 126 126 121 122 109 97 107 109 104 113 124 124 124 122 123 124 129 130 134 136 136 138 139 141 146 146 147 144 148 150 152 155 154 152 152 153